Overview Statistics Trail Chart Weather Telemetry Raw packets
 

This is the latest recevied weather packets stored in our database for station/object K5SVV. If no packets are shown the sender has not sent any weather packets the latest 10 day(s).

<< 28 29 30 31 32 33 34 >>
Time Temp. Humidity Pressure Rain* Wind** Luminosity Snow
1788468849 31.11° C 69% 1011.2 hPa 0 mm - 224 W/m² -
1788468543 31.11° C 68% 1011.2 hPa 0 mm - 247 W/m² -
1788468239 30.56° C 69% 1011.5 hPa 0 mm - 268 W/m² -
1788467935 30.56° C 69% 1011.4 hPa 0 mm - 270 W/m² -
1788467631 31.11° C 69% 1011.4 hPa 0 mm - 291 W/m² -
1788467329 31.11° C 68% 1011.5 hPa 0 mm - 315 W/m² -
1788467026 31.11° C 69% 1011.6 hPa 0 mm - 319 W/m² -
1788466726 31.11° C 68% 1011.7 hPa 0 mm - 321 W/m² -
1788466421 31.11° C 70% 1011.4 hPa 0 mm - 332 W/m² -
1788466119 31.11° C 70% 1011.8 hPa 0 mm - 352 W/m² -
1788465815 31.11° C 70% 1011.6 hPa 0 mm - 397 W/m² -
1788465510 30.56° C 70% 1011.6 hPa 0 mm - 433 W/m² -
1788465206 30.56° C 70% 1011.7 hPa 0 mm - 402 W/m² -
1788464901 30.56° C 70% 1011.6 hPa 0 mm - 429 W/m² -
1788464597 30.56° C 71% 1011.9 hPa 0 mm - 403 W/m² -
1788464292 30.56° C 71% 1011.8 hPa 0 mm - 376 W/m² -
1788463990 30° C 71% 1012.1 hPa 0 mm - 377 W/m² -
1788463683 30.56° C 71% 1011.8 hPa 0 mm - 349 W/m² -
1788463379 30.56° C 71% 1012.1 hPa 0 mm - 352 W/m² -
1788463075 30.56° C 70% 1011.9 hPa 0 mm - 371 W/m² -
1788462771 30.56° C 71% 1012 hPa 0 mm - 432 W/m² -
1788462476 30.56° C 71% 1012.4 hPa 0 mm - 591 W/m² -
1788462159 30° C 73% 1012.3 hPa 0 mm - 494 W/m² -
1788461854 30° C 73% 1012.4 hPa 0 mm - 411 W/m² -
1788461553 30° C 73% 1012.8 hPa 0 mm - 482 W/m² -

* Rain latest hour (hover to see other rain measurements)
** Current wind speed in m/s (hover to see current wind gust speed)